1507669200.73,14507,9.94,73556.3,-2.59,-3.39,-3.35,0,*55
1507669201.95,14508,9.94,73558.8,-2.59,-3.35,-3.39,0,*5A
1507669203.15,14509,9.94,73552.3,-2.61,-3.35,-3.35,0,*5C
1507669204.37,14510,9.94,73554.5,-2.59,-3.39,-3.35,0,*53
1507669205.6,14511,9.88,73558.8,-2.59,-3.39,-3.35,0,*52
1507669206.82,14512,9.94,73558.5,-2.59,-3.35,-3.35,0,*5D
1507669208.05,14513,9.94,73546.0,-2.59,-3.39,-3.39,0,*5C
1507669209.24,14514,9.94,73538.3,-2.57,-3.35,-3.31,0,*51
1507669210.46,14515,9.94,73544.3,-2.59,-3.39,-3.35,0,*56
1507669211.69,14516,9.94,73544.8,-2.59,-3.35,-3.35,0,*59
1507669212.88,14517,9.94,73532.3,-2.57,-3.31,-3.31,0,*56
1507669214.08,14518,9.94,73534.0,-2.61,-3.35,-3.39,0,*50
1507669215.28,14519,9.94,73542.5,-2.61,-3.35,-3.35,0,*5D
1507669216.48,14520,9.94,73540.0,-2.61,-3.35,-3.39,0,*5B
1507669217.7,14521,9.94,73546.3,-2.59,-3.39,-3.39,0,*5D
1507669218.92,14522,9.94,73550.8,-2.59,-3.35,-3.39,0,*52
1507669220.11,14523,9.88,73546.0,-2.57,-3.35,-3.31,0,*55
1507669221.34,14524,9.94,73550.5,-2.59,-3.39,-3.35,0,*54
1507669222.56,14525,9.94,73544.3,-2.59,-3.35,-3.39,0,*55
1507669223.79,14526,9.88,73544.5,-2.59,-3.35,-3.35,0,*5A
1507669225.01,14527,9.94,73552.5,-2.59,-3.39,-3.35,0,*57
1507669226.24,14528,9.94,73552.3,-2.59,-3.39,-3.39,0,*54
1507669227.46,14529,9.94,73548.0,-2.59,-3.39,-3.35,0,*59
1507669228.68,14530,9.94,73548.3,-2.59,-3.39,-3.39,0,*5D
1507669229.91,14531,9.94,73558.5,-2.59,-3.35,-3.39,0,*50
1507669231.1,14532,9.88,73550.8,-2.57,-3.35,-3.31,0,*55
1507669232.33,14533,9.94,73554.0,-2.59,-3.35,-3.35,0,*5E
1507669233.55,14534,9.94,73540.0,-2.59,-3.39,-3.39,0,*59
1507669234.77,14535,9.94,73552.8,-2.59,-3.39,-3.35,0,*54
1507669235.97,14536,9.94,73552.0,-2.57,-3.31,-3.31,0,*55
1507669237.19,14537,9.94,73546.8,-2.59,-3.35,-3.35,0,*5A
1507669238.41,14538,9.94,73552.8,-2.59,-3.39,-3.35,0,*59
1507669239.64,14539,9.94,73544.0,-2.59,-3.39,-3.39,0,*54
1507669240.83,14540,9.94,73544.3,-2.57,-3.35,-3.35,0,*54
1507669242.03,14541,9.94,73544.8,-2.57,-3.31,-3.35,0,*51
1507669243.25,14542,9.94,73554.3,-2.59,-3.39,-3.35,0,*54
1507669244.48,14543,9.94,73544.0,-2.59,-3.39,-3.35,0,*55
1507669245.67,14544,9.88,73540.3,-2.61,-3.35,-3.39,0,*59
1507669246.9,14545,9.94,73540.0,-2.59,-3.35,-3.35,0,*5F
1507669248.09,14546,9.94,73536.3,-2.57,-3.35,-3.31,0,*56
1507669249.32,14547,9.94,73538.8,-2.59,-3.39,-3.35,0,*51
1507669250.54,14548,9.94,73538.5,-2.59,-3.35,-3.35,0,*52
1507669251.77,14549,9.94,73542.8,-2.59,-3.35,-3.35,0,*53
1507669252.99,14550,9.94,73524.8,-2.59,-3.35,-3.35,0,*5B
1507669254.22,14551,9.94,73542.0,-2.59,-3.35,-3.39,0,*56
1507669255.41,14552,9.94,73540.0,-2.57,-3.31,-3.35,0,*53
1507669256.63,14553,9.94,73544.5,-2.59,-3.35,-3.39,0,*54
1507669257.86,14554,9.94,73544.8,-2.59,-3.35,-3.35,0,*5F
1507669259.08,14555,9.94,73540.3,-2.59,-3.39,-3.35,0,*52
1507669260.31,14556,9.94,73546.3,-2.59,-3.39,-3.35,0,*51
1507669261.53,14557,9.94,73544.3,-2.59,-3.35,-3.35,0,*5C
1507669262.76,14558,9.94,73546.8,-2.59,-3.35,-3.39,0,*5F
1507669263.98,14559,9.94,73548.8,-2.59,-3.35,-3.39,0,*5E
1507669265.17,14560,9.94,73550.3,-2.57,-3.31,-3.31,0,*56
1507669266.4,14561,9.88,73552.0,-2.59,-3.35,-3.39,0,*55
1507669267.62,14562,9.94,73550.5,-2.59,-3.35,-3.35,0,*5A
1507669268.82,14563,9.88,73546.3,-2.57,-3.35,-3.35,0,*55
1507669270.04,14564,9.94,73546.3,-2.59,-3.39,-3.39,0,*5C
1507669271.26,14565,9.94,73550.8,-2.59,-3.39,-3.35,0,*51
1507669272.49,14566,9.94,73558.3,-2.59,-3.39,-3.39,0,*5E
1507669273.71,14567,9.94,73564.0,-2.59,-3.35,-3.39,0,*53
1507669274.94,14568,9.88,73564.3,-2.59,-3.35,-3.39,0,*5C
1507669276.16,14569,9.94,73570.5,-2.59,-3.35,-3.39,0,*5D
1507669277.39,14570,9.94,73572.8,-2.59,-3.27,-3.39,0,*56
1507669278.61,14571,9.94,73570.0,-2.59,-3.27,-3.35,0,*5B
1507669279.84,14572,9.88,73570.3,-2.59,-3.39,-3.35,0,*57
1507669281.06,14573,9.94,73566.3,-2.59,-3.39,-3.35,0,*56
1507669282.28,14574,9.94,73564.3,-2.59,-3.35,-3.39,0,*51
1507669283.51,14575,9.94,73562.8,-2.59,-3.39,-3.35,0,*50
1507669284.7,14576,9.94,73556.8,-2.57,-3.31,-3.39,0,*59
1507669285.93,14577,9.94,73554.8,-2.59,-3.35,-3.35,0,*5E
1507669287.12,14578,9.94,73554.3,-2.57,-3.35,-3.35,0,*5F
1507669288.35,14579,9.88,73558.0,-2.59,-3.39,-3.35,0,*5C
1507669289.57,14580,9.88,73550.8,-2.59,-3.35,-3.35,0,*56
1507669290.8,14581,9.94,73562.0,-2.59,-3.27,-3.35,0,*54
1507669292.02,14582,9.88,73554.0,-2.59,-3.35,-3.35,0,*54
1507669293.25,14583,9.94,73558.5,-2.59,-3.35,-3.39,0,*59
1507669294.44,14584,9.94,73560.5,-2.57,-3.35,-3.35,0,*5C
1507669295.67,14585,9.94,73558.3,-2.59,-3.35,-3.35,0,*53
1507669296.86,14586,9.94,73546.3,-2.57,-3.35,-3.35,0,*5E
1507669298.06,14587,9.88,73548.0,-2.57,-3.35,-3.35,0,*5F
1507669299.28,14588,9.94,73544.0,-2.59,-3.39,-3.39,0,*5E
1507669300.47,14589,9.94,73540.8,-2.57,-3.35,-3.35,0,*51
1507669301.7,14590,9.94,73550.8,-2.59,-3.35,-3.39,0,*5B
1507669302.92,14591,9.88,73548.3,-2.59,-3.39,-3.35,0,*5A
1507669304.12,14592,9.88,73534.5,-2.57,-3.35,-3.35,0,*5B
1507669305.34,14593,9.94,73544.5,-2.59,-3.35,-3.35,0,*54
1507669306.57,14594,9.88,73536.8,-2.59,-3.39,-3.39,0,*53
1507669307.76,14595,9.94,73558.8,-2.57,-3.31,-3.31,0,*5C
1507669308.98,14596,9.94,73568.0,-2.59,-3.35,-3.35,0,*51
1507669310.21,14597,9.94,73574.3,-2.59,-3.35,-3.39,0,*5C
1507669311.43,14598,9.88,73564.0,-2.59,-3.39,-3.35,0,*53
1507669312.62,14599,9.94,73570.5,-2.57,-3.31,-3.23,0,*53
1507669313.85,14600,9.94,73566.0,-2.59,-3.35,-3.27,0,*5E
1507669315.07,14601,9.94,73562.8,-2.59,-3.35,-3.35,0,*5C
1507669316.26,14602,9.94,73552.3,-2.57,-3.19,-3.23,0,*58
1507669317.48,14603,9.94,73560.8,-2.59,-3.27,-3.35,0,*5D
1507669318.71,14604,9.94,73566.5,-2.59,-3.35,-3.35,0,*59
1507669319.89,14605,9.88,73564.0,-2.57,-3.23,-3.35,0,*51
1507669321.08,14606,9.88,73558.8,-2.57,-3.23,-3.31,0,*56
1507669322.29,14607,9.94,73560.3,-2.59,-3.23,-3.23,0,*5A
1507669323.47,14608,9.94,73566.8,-2.57,-3.23,-3.23,0,*5B
1507669324.7,14609,9.94,73564.5,-2.59,-3.35,-3.35,0,*54
1507669325.89,14610,9.94,73564.5,-2.57,-3.31,-3.31,0,*52
1507669327.11,14611,9.94,73558.5,-2.59,-3.27,-3.39,0,*52
1507669328.3,14612,9.94,73558.8,-2.57,-3.23,-3.31,0,*53
1507669329.49,14613,9.88,73566.8,-2.57,-3.23,-3.31,0,*52
1507669330.71,14614,9.88,73572.5,-2.59,-3.35,-3.27,0,*5B
1507669331.89,14615,9.88,73576.0,-2.57,-3.23,-3.23,0,*57
1507669333.09,14616,9.88,73574.5,-2.57,-3.31,-3.19,0,*5E
1507669334.28,14617,9.88,73574.5,-2.57,-3.31,-3.31,0,*55
1507669335.46,14618,9.88,73574.8,-2.57,-3.23,-3.31,0,*59
1507669336.64,14619,9.94,73570.3,-2.57,-3.23,-3.23,0,*5B
1507669337.83,14620,9.94,73570.5,-2.57,-3.19,-3.31,0,*5B
1507669339.02,14621,9.94,73568.8,-2.57,-3.19,-3.23,0,*59
1507669340.2,14622,9.88,73570.5,-2.57,-3.19,-3.23,0,*5A
1507669341.39,14623,9.94,73574.3,-2.57,-3.23,-3.31,0,*51
1507669342.57,14624,9.88,73572.5,-2.57,-3.23,-3.31,0,*56
1507669343.8,14625,9.88,73570.5,-2.59,-3.35,-3.35,0,*5A
1507669344.99,14626,9.88,73570.8,-2.57,-3.31,-3.31,0,*57
1507669346.18,14627,9.88,73574.0,-2.57,-3.31,-3.23,0,*55
1507669347.36,14628,9.88,73570.5,-2.57,-3.23,-3.31,0,*5A
1507669348.55,14629,9.88,73566.8,-2.57,-3.19,-3.31,0,*52
1507669349.74,14630,9.88,73568.5,-2.57,-3.23,-3.31,0,*53
1507669350.92,14631,9.88,73566.5,-2.57,-3.23,-3.31,0,*52
1507669352.1,14632,9.88,73566.0,-2.57,-3.23,-3.23,0,*52
1507669353.29,14633,9.88,73564.3,-2.57,-3.23,-3.31,0,*50
1507669354.48,14634,9.88,73560.3,-2.57,-3.23,-3.31,0,*57
1507669355.7,14635,9.88,73560.0,-2.59,-3.27,-3.27,0,*5B
1507669356.89,14636,9.88,73556.3,-2.57,-3.23,-3.19,0,*5F
1507669358.07,14637,9.88,73562.0,-2.57,-3.23,-3.23,0,*57
1507669359.26,14638,9.88,73560.0,-2.57,-3.31,-3.23,0,*5B
1507669360.44,14639,9.88,73560.3,-2.57,-3.23,-3.23,0,*59
1507669361.66,14640,9.88,73568.0,-2.59,-3.23,-3.27,0,*5D
1507669362.86,14641,9.88,73562.0,-2.57,-3.27,-3.27,0,*56
1507669364.09,14642,9.88,73556.8,-2.59,-3.27,-3.27,0,*5B
1507669365.27,14643,9.88,73560.3,-2.57,-3.23,-3.23,0,*54
1507669366.45,14644,9.88,73566.5,-2.57,-3.23,-3.23,0,*53
1507669367.64,14645,9.88,73566.5,-2.57,-3.19,-3.19,0,*52
1507669368.82,14646,9.88,73574.3,-2.57,-3.23,-3.23,0,*51
1507669370.0,14647,9.88,73574.0,-2.57,-3.19,-3.23,0,*59
1507669371.19,14648,9.88,73574.8,-2.57,-3.19,-3.23,0,*56
1507669372.37,14649,9.88,73574.5,-2.57,-3.23,-3.31,0,*5D
1507669373.56,14650,9.88,73566.3,-2.57,-3.23,-3.19,0,*5F
1507669374.74,14651,9.88,73562.8,-2.57,-3.19,-3.23,0,*5E
1507669375.93,14652,9.88,73566.8,-2.57,-3.23,-3.19,0,*5D
1507669377.12,14653,9.88,73556.8,-2.57,-3.31,-3.31,0,*55
1507669378.31,14654,9.88,73572.0,-2.57,-3.31,-3.31,0,*52
1507669379.5,14655,9.88,73570.3,-2.57,-3.23,-3.31,0,*50
1507669380.69,14656,9.88,73560.5,-2.57,-3.31,-3.23,0,*53
1507669381.87,14657,9.88,73558.5,-2.57,-3.31,-3.23,0,*52
1507669383.05,14658,9.88,73562.3,-2.57,-3.23,-3.23,0,*5E
1507669384.25,14659,9.88,73564.0,-2.57,-3.31,-3.31,0,*5F
1507669385.43,14660,9.88,73560.5,-2.57,-3.23,-3.31,0,*56
1507669386.62,14661,9.88,73566.8,-2.57,-3.23,-3.35,0,*53
1507669387.81,14662,9.88,73576.0,-2.57,-3.35,-3.31,0,*53
1507669389.0,14663,9.88,73572.8,-2.57,-3.23,-3.35,0,*51
1507669390.19,14664,9.88,73566.0,-2.57,-3.31,-3.31,0,*51
1507669391.39,14665,9.88,73570.0,-2.57,-3.35,-3.35,0,*50
1507669392.62,14666,9.88,73574.0,-2.55,-3.27,-3.27,0,*51
1507669393.84,14667,9.88,73560.8,-2.55,-3.27,-3.27,0,*50
1507669395.07,14668,9.88,73560.5,-2.55,-3.31,-3.27,0,*58
1507669396.26,14669,9.88,73568.3,-2.57,-3.31,-3.31,0,*5C
1507669397.45,14670,9.88,73566.5,-2.57,-3.35,-3.35,0,*54
1507669398.65,14671,9.88,73556.0,-2.57,-3.31,-3.31,0,*55
1507669399.84,14672,9.88,73550.8,-2.57,-3.19,-3.31,0,*5C
1507669401.03,14673,9.88,73548.3,-2.57,-3.31,-3.35,0,*53
1507669402.23,14674,9.88,73544.5,-2.57,-3.31,-3.35,0,*54
1507669403.42,14675,9.88,73544.3,-2.57,-3.31,-3.35,0,*55
1507669404.62,14676,9.88,73544.5,-2.57,-3.35,-3.35,0,*52
1507669405.81,14677,9.88,73546.5,-2.57,-3.31,-3.35,0,*57
1507669407.01,14678,9.88,73548.3,-2.57,-3.31,-3.35,0,*58
1507669408.2,14679,9.88,73558.5,-2.57,-3.31,-3.31,0,*5D
1507669409.39,14680,9.88,73552.8,-2.57,-3.35,-3.31,0,*5F
1507669410.59,14681,9.88,73556.5,-2.57,-3.35,-3.35,0,*5A
1507669411.78,14682,9.88,73560.3,-2.57,-3.35,-3.35,0,*59
1507669412.97,14683,9.88,73564.5,-2.57,-3.31,-3.31,0,*58
1507669414.16,14684,9.88,73566.5,-2.57,-3.31,-3.31,0,*5F
1507669415.35,14685,9.88,73562.8,-2.57,-3.23,-3.31,0,*5D
1507669416.54,14686,9.88,73562.8,-2.57,-3.31,-3.31,0,*5D
1507669417.74,14687,9.88,73570.5,-2.57,-3.31,-3.35,0,*58
1507669418.93,14688,9.88,73562.3,-2.57,-3.35,-3.31,0,*57
1507669420.12,14689,9.88,73574.8,-2.57,-3.31,-3.31,0,*52
1507669421.35,14690,9.88,73566.3,-2.59,-3.27,-3.35,0,*57
1507669422.54,14691,9.88,73568.8,-2.57,-3.31,-3.23,0,*58
1507669423.72,14692,9.88,73566.0,-2.57,-3.23,-3.23,0,*58
1507669424.9,14693,9.88,73570.5,-2.57,-3.23,-3.23,0,*59
1507669426.09,14694,9.88,73566.8,-2.57,-3.31,-3.31,0,*5E
1507669427.28,14695,9.88,73560.5,-2.57,-3.31,-3.31,0,*5F
1507669428.47,14696,9.88,73558.5,-2.57,-3.23,-3.31,0,*5F
1507669429.65,14697,9.88,73554.8,-2.57,-3.23,-3.23,0,*5D
1507669430.84,14698,9.88,73558.3,-2.57,-3.31,-3.23,0,*51
1507669432.06,14699,9.88,73554.0,-2.55,-3.15,-3.19,0,*5D
1507669433.24,14700,9.88,73556.3,-2.57,-3.23,-3.23,0,*52
1507669434.42,14701,9.88,73552.5,-2.57,-3.23,-3.31,0,*50
1507669435.61,14702,9.88,73556.8,-2.57,-3.35,-3.31,0,*54
1507669436.81,14703,9.94,73564.5,-2.57,-3.31,-3.35,0,*55
1507669438.0,14704,9.88,73560.3,-2.57,-3.31,-3.31,0,*56
1507669439.19,14705,9.88,73554.8,-2.57,-3.31,-3.31,0,*57
1507669440.42,14706,9.88,73564.3,-2.59,-3.27,-3.35,0,*59
1507669441.61,14707,9.88,73566.5,-2.57,-3.23,-3.35,0,*52
1507669442.79,14708,9.88,73566.3,-2.57,-3.23,-3.31,0,*59
1507669443.98,14709,9.88,73566.8,-2.57,-3.23,-3.31,0,*58
1507669445.16,14710,9.88,73568.3,-2.57,-3.23,-3.31,0,*50
1507669446.39,14711,9.88,73568.3,-2.55,-3.27,-3.27,0,*50
1507669447.61,14712,9.88,73562.5,-2.55,-3.27,-3.31,0,*54
1507669448.83,14713,9.88,73562.8,-2.55,-3.31,-3.31,0,*52
1507669450.05,14714,9.94,73564.3,-2.55,-3.27,-3.31,0,*52
1507669451.27,14715,9.88,73560.8,-2.55,-3.27,-3.27,0,*54
1507669452.5,14716,9.88,73560.0,-2.55,-3.27,-3.31,0,*50
1507669453.69,14717,9.88,73562.5,-2.57,-3.31,-3.35,0,*50
1507669454.89,14718,9.88,73562.8,-2.57,-3.35,-3.35,0,*5B
1507669456.08,14719,9.88,73566.0,-2.57,-3.35,-3.35,0,*5A
1507669457.28,14720,9.88,73560.3,-2.57,-3.31,-3.35,0,*54
1507669458.47,14721,9.88,73548.5,-2.57,-3.35,-3.35,0,*51
1507669459.66,14722,9.88,73552.5,-2.57,-3.35,-3.31,0,*56
1507669460.86,14723,9.88,73552.5,-2.57,-3.35,-3.35,0,*53
1507669462.05,14724,9.88,73554.3,-2.57,-3.35,-3.31,0,*50
1507669463.25,14725,9.88,73552.0,-2.57,-3.35,-3.35,0,*55
1507669464.47,14726,9.88,73552.0,-2.59,-3.39,-3.39,0,*58
1507669465.67,14727,9.88,73552.3,-2.57,-3.35,-3.35,0,*57
1507669466.86,14728,9.88,73552.3,-2.57,-3.35,-3.35,0,*58
1507669468.06,14729,9.88,73554.5,-2.57,-3.35,-3.35,0,*59
1507669469.28,14730,9.88,73552.5,-2.59,-3.39,-3.39,0,*5F
1507669470.47,14731,9.88,73550.0,-2.57,-3.39,-3.35,0,*5C
1507669471.67,14732,9.88,73546.0,-2.57,-3.39,-3.35,0,*5F
1507669472.86,14733,9.88,73554.5,-2.57,-3.39,-3.35,0,*5E
1507669474.06,14734,9.88,73558.3,-2.57,-3.35,-3.35,0,*55
1507669475.25,14735,9.88,73564.0,-2.57,-3.35,-3.35,0,*54
1507669476.45,14736,9.88,73564.8,-2.57,-3.35,-3.31,0,*53
1507669477.67,14737,9.88,73562.0,-2.59,-3.35,-3.39,0,*54
1507669478.86,14738,9.88,73564.5,-2.57,-3.31,-3.31,0,*59
1507669480.05,14739,9.88,73564.0,-2.57,-3.31,-3.31,0,*58
1507669481.25,14740,9.88,73566.0,-2.57,-3.31,-3.35,0,*52
1507669482.44,14741,9.88,73566.0,-2.57,-3.31,-3.31,0,*57
1507669483.63,14742,9.88,73560.8,-2.57,-3.31,-3.23,0,*57
1507669484.82,14743,9.88,73562.3,-2.57,-3.35,-3.31,0,*51
1507669486.02,14744,9.88,73564.3,-2.57,-3.31,-3.35,0,*56
1507669487.21,14745,9.88,73562.3,-2.57,-3.31,-3.31,0,*53
1507669488.4,14746,9.88,73566.3,-2.57,-3.31,-3.31,0,*50
1507669489.59,14747,9.88,73560.8,-2.57,-3.31,-3.31,0,*51
1507669490.81,14748,9.88,73566.8,-2.55,-3.31,-3.31,0,*5C
1507669492.04,14749,9.88,73570.5,-2.55,-3.19,-3.27,0,*50
1507669493.26,14750,9.88,73568.5,-2.55,-3.19,-3.27,0,*58
1507669494.48,14751,9.88,73572.8,-2.55,-3.19,-3.27,0,*59
1507669495.67,14752,9.88,73576.0,-2.57,-3.31,-3.35,0,*51
1507669496.87,14753,9.88,73582.5,-2.57,-3.31,-3.31,0,*54
1507669498.05,14754,9.88,73564.0,-2.57,-3.23,-3.31,0,*50
1507669499.25,14755,9.88,73568.0,-2.57,-3.31,-3.35,0,*56
1507669500.44,14756,9.88,73566.8,-2.57,-3.35,-3.35,0,*51
1507669501.63,14757,9.88,73568.0,-2.57,-3.35,-3.31,0,*54
1507669502.83,14758,9.88,73572.3,-2.57,-3.35,-3.35,0,*5F
1507669504.02,14759,9.88,73570.8,-2.57,-3.31,-3.31,0,*5E
1507669505.22,14760,9.88,73562.5,-2.57,-3.35,-3.35,0,*54
1507669506.44,14761,9.88,73560.8,-2.59,-3.35,-3.39,0,*57
1507669507.64,14762,9.88,73560.8,-2.57,-3.35,-3.35,0,*56
1507669508.86,14763,9.94,73550.8,-2.59,-3.35,-3.39,0,*55
1507669510.05,14764,9.88,73542.8,-2.57,-3.31,-3.23,0,*53
1507669511.24,14765,9.88,73544.8,-2.57,-3.31,-3.35,0,*55
1507669512.47,14766,9.88,73548.5,-2.55,-3.31,-3.27,0,*57
1507669513.66,14767,9.88,73538.5,-2.57,-3.31,-3.31,0,*53
1507669514.84,14768,9.88,73542.5,-2.57,-3.23,-3.23,0,*5C
1507669516.03,14769,9.88,73546.5,-2.57,-3.23,-3.31,0,*5E
1507669517.22,14770,9.88,73546.0,-2.57,-3.23,-3.35,0,*52
1507669518.44,14771,9.88,73554.0,-2.59,-3.27,-3.27,0,*5A
1507669519.64,14772,9.88,73564.0,-2.57,-3.31,-3.31,0,*57
1507669520.83,14773,9.88,73578.0,-2.57,-3.31,-3.31,0,*56
1507669522.03,14774,9.88,73578.3,-2.57,-3.27,-3.35,0,*52
1507669523.21,14775,9.88,73574.8,-2.57,-3.23,-3.31,0,*53
1507669524.4,14776,9.88,73572.0,-2.57,-3.23,-3.31,0,*50
1507669525.62,14777,9.88,73564.8,-2.59,-3.35,-3.39,0,*50
1507669526.82,14778,9.88,73564.5,-2.57,-3.35,-3.35,0,*5D
1507669528.01,14779,9.88,73564.8,-2.57,-3.31,-3.35,0,*58
1507669529.2,14780,9.88,73562.0,-2.57,-3.35,-3.31,0,*5E
1507669530.4,14781,9.88,73564.0,-2.57,-3.31,-3.35,0,*5F
1507669531.62,14782,9.88,73562.5,-2.59,-3.39,-3.39,0,*56
1507669532.82,14783,9.88,73558.0,-2.57,-3.31,-3.39,0,*51
1507669534.01,14784,9.88,73558.5,-2.57,-3.35,-3.39,0,*52
1507669535.21,14785,9.88,73560.5,-2.57,-3.35,-3.39,0,*53
1507669536.4,14786,9.88,73560.8,-2.57,-3.35,-3.39,0,*50
1507669537.62,14787,9.88,73566.5,-2.55,-3.31,-3.35,0,*5B
1507669538.82,14788,9.88,73560.3,-2.57,-3.35,-3.31,0,*56
1507669540.01,14789,9.94,73566.0,-2.57,-3.31,-3.35,0,*57
1507669541.2,14790,9.88,73560.5,-2.57,-3.31,-3.35,0,*5F
1507669542.4,14791,9.88,73566.3,-2.57,-3.35,-3.35,0,*5A
1507669543.6,14792,9.88,73572.8,-2.57,-3.35,-3.35,0,*59
1507669544.82,14793,9.88,73560.3,-2.59,-3.39,-3.39,0,*56
1507669546.01,14794,9.88,73554.5,-2.57,-3.35,-3.35,0,*5F
1507669547.21,14795,9.88,73538.0,-2.57,-3.31,-3.31,0,*5E
1507669548.43,14796,9.88,73534.5,-2.59,-3.39,-3.39,0,*53
1507669549.63,14797,9.88,73534.0,-2.57,-3.35,-3.35,0,*5C
1507669550.82,14798,9.88,73540.5,-2.57,-3.35,-3.35,0,*53
1507669552.01,14799,9.88,73544.5,-2.57,-3.35,-3.35,0,*52
1507669553.21,14800,9.88,73550.5,-2.57,-3.35,-3.35,0,*5D
1507669554.4,14801,9.88,73550.8,-2.57,-3.35,-3.31,0,*58
1507669555.6,14802,9.88,73550.8,-2.57,-3.35,-3.35,0,*5F
1507669556.82,14803,9.88,73550.3,-2.59,-3.35,-3.39,0,*5C
1507669558.01,14804,9.88,73550.5,-2.57,-3.31,-3.31,0,*59
1507669559.21,14805,9.88,73556.0,-2.57,-3.31,-3.35,0,*5C
1507669560.4,14806,9.88,73558.5,-2.57,-3.31,-3.35,0,*5F
1507669561.6,14807,9.88,73566.3,-2.57,-3.35,-3.35,0,*5A
1507669562.82,14808,9.88,73568.0,-2.55,-3.31,-3.31,0,*57
1507669564.01,14809,9.88,73570.0,-2.57,-3.31,-3.35,0,*50
1507669565.21,14810,9.88,73572.5,-2.57,-3.31,-3.35,0,*58
1507669566.4,14811,9.88,73578.3,-2.57,-3.35,-3.31,0,*59
1507669567.59,14812,9.88,73580.0,-2.57,-3.31,-3.31,0,*5E
1507669568.79,14813,9.88,73576.5,-2.57,-3.31,-3.35,0,*5B
1507669569.98,14814,9.88,73572.8,-2.57,-3.31,-3.31,0,*58
1507669571.18,14815,9.88,73570.8,-2.57,-3.35,-3.35,0,*59
1507669572.37,14816,9.88,73568.5,-2.57,-3.31,-3.35,0,*5E
1507669573.57,14817,9.88,73560.8,-2.57,-3.35,-3.35,0,*5B
1507669574.76,14818,9.88,73558.5,-2.57,-3.35,-3.31,0,*50
1507669575.95,14819,9.88,73544.3,-2.57,-3.35,-3.35,0,*55
1507669577.15,14820,9.88,73546.5,-2.57,-3.35,-3.35,0,*5F
1507669578.34,14821,9.88,73546.5,-2.57,-3.31,-3.31,0,*5E
1507669579.53,14822,9.88,73554.5,-2.57,-3.35,-3.31,0,*59
1507669580.72,14823,9.88,73552.8,-2.57,-3.23,-3.35,0,*5B
1507669581.94,14824,9.88,73554.8,-2.55,-3.19,-3.27,0,*54
1507669583.17,14825,9.88,73554.5,-2.59,-3.39,-3.39,0,*54
1507669584.36,14826,9.88,73560.5,-2.57,-3.35,-3.35,0,*59
1507669585.56,14827,9.88,73556.3,-2.57,-3.31,-3.35,0,*5C
1507669586.75,14828,9.88,73564.3,-2.57,-3.31,-3.35,0,*53
1507669587.98,14829,9.88,73564.5,-2.59,-3.39,-3.35,0,*54
1507669589.17,14830,9.88,73564.0,-2.57,-3.31,-3.31,0,*5E
1507669590.36,14831,9.88,73564.3,-2.57,-3.35,-3.35,0,*5F
1507669591.56,14832,9.88,73562.8,-2.57,-3.31,-3.31,0,*5C
1507669592.74,14833,9.88,73560.3,-2.57,-3.23,-3.31,0,*5E
1507669593.97,14834,9.88,73562.0,-2.59,-3.27,-3.35,0,*57
1507669595.16,14835,9.88,73552.8,-2.57,-3.31,-3.31,0,*5B
1507669596.35,14836,9.88,73548.8,-2.57,-3.35,-3.31,0,*5C
1507669597.54,14837,9.88,73550.8,-2.57,-3.31,-3.31,0,*59
1507669598.74,14838,9.88,73562.3,-2.57,-3.31,-3.31,0,*56
1507669599.93,14839,9.88,73554.3,-2.57,-3.35,-3.35,0,*57
1507669601.13,14840,9.88,73558.0,-2.57,-3.35,-3.35,0,*59
1507669602.32,14841,9.88,73566.3,-2.57,-3.31,-3.35,0,*5C
1507669603.52,14842,9.88,73560.3,-2.57,-3.35,-3.35,0,*5B
1507669604.71,14843,9.88,73566.5,-2.57,-3.35,-3.35,0,*5A
1507669605.91,14844,9.88,73566.5,-2.57,-3.35,-3.35,0,*5D
1507669607.1,14845,9.88,73566.0,-2.57,-3.31,-3.35,0,*58
1507669608.3,14846,9.88,73570.8,-2.57,-3.35,-3.35,0,*5F
1507669609.52,14847,9.88,73566.8,-2.59,-3.39,-3.39,0,*50
1507669610.72,14848,9.88,73566.0,-2.57,-3.35,-3.35,0,*51
1507669611.91,14849,9.88,73564.5,-2.57,-3.35,-3.39,0,*5C
1507669613.11,14850,9.88,73566.8,-2.57,-3.35,-3.35,0,*58
1507669614.3,14851,9.88,73564.3,-2.57,-3.35,-3.35,0,*59
1507669615.5,14852,9.88,73566.8,-2.57,-3.35,-3.35,0,*5A
1507669616.69,14853,9.88,73568.5,-2.57,-3.35,-3.35,0,*5B
1507669617.89,14854,9.88,73566.0,-2.57,-3.35,-3.35,0,*5C
1507669619.08,14855,9.88,73564.8,-2.57,-3.35,-3.35,0,*5D
1507669620.28,14856,9.88,73564.5,-2.57,-3.31,-3.35,0,*5A
1507669621.5,14857,9.88,73566.8,-2.59,-3.39,-3.39,0,*51
1507669622.7,14858,9.88,73564.3,-2.57,-3.35,-3.35,0,*50
1507669623.89,14859,9.88,73556.8,-2.57,-3.35,-3.31,0,*55
1507669625.08,14860,9.88,73570.8,-2.57,-3.35,-3.35,0,*5B
1507669626.28,14861,9.88,73562.3,-2.57,-3.31,-3.35,0,*5E
1507669627.5,14862,9.88,73566.3,-2.59,-3.35,-3.39,0,*5B
1507669628.7,14863,9.88,73562.5,-2.57,-3.35,-3.35,0,*58
1507669629.89,14864,9.88,73562.8,-2.57,-3.35,-3.35,0,*5F
1507669631.09,14865,9.88,73562.8,-2.57,-3.35,-3.35,0,*5E
1507669632.28,14866,9.88,73566.5,-2.57,-3.35,-3.35,0,*5D
1507669633.51,14867,9.88,73570.8,-2.59,-3.35,-3.39,0,*5E
1507669634.7,14868,9.88,73566.8,-2.57,-3.35,-3.35,0,*53
1507669635.9,14869,9.88,73568.8,-2.57,-3.35,-3.35,0,*52
1507669637.12,14870,9.88,73568.3,-2.59,-3.39,-3.39,0,*54
1507669638.32,14871,9.88,73576.5,-2.57,-3.35,-3.35,0,*5B
1507669639.51,14872,9.88,73582.0,-2.57,-3.31,-3.35,0,*5C
1507669640.7,14873,9.88,73578.5,-2.57,-3.31,-3.31,0,*59
1507669641.9,14874,9.88,73576.0,-2.57,-3.35,-3.35,0,*5E
1507669643.12,14875,9.88,73568.3,-2.59,-3.39,-3.35,0,*5D
1507669644.32,14876,9.88,73562.0,-2.57,-3.35,-3.31,0,*58
1507669645.51,14877,9.88,73556.3,-2.57,-3.35,-3.35,0,*5D
1507669646.71,14878,9.88,73562.5,-2.57,-3.35,-3.35,0,*52
1507669647.9,14879,9.88,73576.5,-2.57,-3.35,-3.35,0,*53
1507669649.1,14880,9.88,73562.3,-2.57,-3.35,-3.35,0,*55
1507669650.29,14881,9.88,73564.3,-2.57,-3.35,-3.31,0,*50
1507669651.51,14882,9.88,73566.3,-2.59,-3.35,-3.39,0,*55
1507669652.71,14883,9.88,73564.3,-2.57,-3.35,-3.35,0,*56
1507669653.93,14884,9.88,73568.8,-2.59,-3.39,-3.39,0,*5F
1507669655.15,14885,9.88,73568.5,-2.59,-3.39,-3.39,0,*5E
1507669656.35,14886,9.88,73560.8,-2.57,-3.35,-3.31,0,*57
1507669657.57,14887,9.88,73554.0,-2.59,-3.35,-3.39,0,*50
1507669658.8,14888,9.88,73558.5,-2.59,-3.35,-3.35,0,*53
1507669660.02,14889,9.88,73566.3,-2.59,-3.35,-3.35,0,*52
1507669661.25,14890,9.88,73560.3,-2.59,-3.35,-3.39,0,*56
1507669662.44,14891,9.88,73554.0,-2.57,-3.35,-3.35,0,*55
1507669663.64,14892,9.88,73558.5,-2.57,-3.31,-3.35,0,*52
1507669664.86,14893,9.88,73562.5,-2.59,-3.35,-3.39,0,*55
1507669666.08,14894,9.88,73562.0,-2.59,-3.39,-3.39,0,*5E
1507669667.31,14895,9.88,73558.3,-2.59,-3.39,-3.39,0,*5F
1507669668.53,14896,9.88,73558.8,-2.59,-3.39,-3.39,0,*5C
1507669669.73,14897,9.88,73556.5,-2.57,-3.31,-3.35,0,*57
1507669670.95,14898,9.88,73562.0,-2.59,-3.27,-3.35,0,*51
1507669672.15,14899,9.88,73566.5,-2.57,-3.35,-3.35,0,*5D
1507669673.37,14900,9.88,73552.5,-2.59,-3.39,-3.39,0,*52
1507669674.6,14901,9.88,73560.5,-2.59,-3.35,-3.39,0,*5F
1507669675.82,14902,9.88,73556.5,-2.59,-3.39,-3.39,0,*50
1507669677.01,14903,9.88,73558.8,-2.57,-3.35,-3.35,0,*5F
1507669678.24,14904,9.88,73566.3,-2.59,-3.35,-3.39,0,*5A
1507669679.46,14905,9.88,73564.8,-2.59,-3.39,-3.39,0,*57
1507669680.66,14906,9.88,73576.0,-2.57,-3.35,-3.35,0,*5A
1507669681.85,14907,9.88,73566.8,-2.57,-3.31,-3.35,0,*5F
1507669683.05,14908,9.88,73574.0,-2.57,-3.35,-3.35,0,*54
1507669684.27,14909,9.88,73574.5,-2.59,-3.39,-3.35,0,*57
1507669685.49,14910,9.88,73578.8,-2.59,-3.39,-3.39,0,*53
1507669686.69,14911,9.88,73568.5,-2.57,-3.35,-3.35,0,*5C
1507669687.88,14912,9.88,73568.3,-2.57,-3.35,-3.35,0,*5F
1507669689.11,14913,9.88,73562.3,-2.59,-3.39,-3.39,0,*50
1507669690.3,14914,9.88,73558.3,-2.57,-3.35,-3.39,0,*55
1507669691.55,14915,9.88,73562.5,-2.59,-3.39,-3.43,0,*5B
1507669692.79,14916,9.88,73566.0,-2.59,-3.39,-3.43,0,*58
1507669694.02,14917,9.88,73570.8,-2.59,-3.39,-3.39,0,*54
1507669695.21,14918,9.88,73558.0,-2.57,-3.31,-3.31,0,*55
1507669696.43,14919,9.88,73558.5,-2.59,-3.39,-3.39,0,*5A
1507669697.63,14920,9.88,73568.5,-2.57,-3.31,-3.31,0,*5E
1507669698.82,14921,9.88,73572.0,-2.57,-3.31,-3.35,0,*5B
1507669700.01,14922,9.88,73576.8,-2.57,-3.35,-3.31,0,*58
1507669701.21,14923,9.88,73582.8,-2.57,-3.31,-3.35,0,*59
1507669702.4,14924,9.88,73578.8,-2.57,-3.35,-3.35,0,*5A
1507669703.6,14925,9.88,73582.3,-2.57,-3.35,-3.35,0,*5B
1507669704.82,14926,9.88,73578.5,-2.59,-3.35,-3.39,0,*5A
1507669706.05,14927,9.88,73572.0,-2.59,-3.39,-3.35,0,*5B